Theta_e
318 319 321 320 320 327 328 328 328 325 325 319 318 321 320 320 321 321 321 321 322 322 321 320 320 320 321 319 319 319 320 319 320 318 320 325 319 317 318 316 315 314 314 316 317 316 318 321 323 325 327 328 327 328 328 328 326 327 330 332 335 337 336 336 336 335 334 332 332 332 331 331 330 329 329 328 327 326 324 322 320 319 318 318 318 317 315 311 310 310 311 311 314 319 322 326 332
318 319 321 321 323 328 330 328 325 322 321 317 318 320 319 321 321 321 320 320 320 320 320 320 320 320 320 320 320 320 321 320 320 319 320 321 319 322 320 315 314 314 315 315 318 318 319 321 322 324 324 325 327 328 328 328 327 327 328 330 333 335 335 335 335 335 334 331 330 331 331 332 331 331 330 328 328 327 325 323 322 320 319 318 317 316 315 311 309 308 308 308 311 317 320 325 332
317 320 323 324 326 328 329 328 323 319 317 316 318 320 320 321 320 320 320 320 320 319 319 319 320 320 320 320 321 320 320 320 320 320 319 319 320 322 317 314 314 313 314 315 317 318 319 320 322 323 323 323 324 326 327 327 328 327 328 329 331 332 333 333 333 335 335 332 331 331 332 332 333 332 330 330 330 327 322 322 321 321 322 322 320 316 313 311 308 308 307 307 309 314 318 324 331
316 320 324 328 329 328 329 327 322 318 316 315 317 320 320 319 319 319 320 320 319 319 319 320 320 320 320 319 319 319 319 320 320 319 318 318 318 316 314 313 313 313 314 315 317 318 319 320 321 321 321 321 321 322 323 324 325 325 327 328 330 332 332 332 332 334 334 333 332 332 333 333 333 332 330 332 332 329 325 326 326 326 325 325 325 322 316 312 309 307 307 307 308 313 322 327 329
317 319 321 327 331 327 326 324 322 320 316 316 318 319 319 319 319 319 319 319 319 319 319 319 319 319 319 319 319 318 319 319 319 318 317 317 316 314 313 313 312 313 313 314 317 318 318 319 319 319 319 319 319 320 321 321 321 322 324 326 328 331 332 332 332 333 334 332 331 331 332 332 332 331 330 332 332 331 331 331 332 331 330 328 327 326 324 320 314 308 307 307 309 319 328 331 330
320 321 320 323 328 325 324 321 319 319 317 319 319 319 319 319 319 318 319 320 319 319 319 319 319 318 318 319 319 319 318 318 318 317 317 316 315 314 313 312 312 312 312 313 315 317 318 317 317 317 317 317 318 319 320 321 321 321 322 324 325 328 332 333 333 333 334 331 330 330 331 331 331 329 330 332 332 332 333 332 332 333 333 331 327 326 328 328 323 313 308 306 313 326 332 333 333
320 323 323 323 324 323 324 320 318 319 319 320 319 319 319 318 319 319 319 319 319 319 318 318 318 317 318 318 318 319 318 317 316 316 316 314 314 314 313 313 313 312 312 312 312 315 316 316 315 316 317 318 318 319 321 321 321 321 321 322 323 326 330 332 333 333 333 331 329 330 331 332 331 329 331 332 332 332 333 332 332 332 333 333 331 329 329 331 329 321 312 307 314 329 333 334 335
317 320 324 323 324 324 322 319 319 320 319 319 319 318 318 318 319 318 318 319 319 318 318 318 317 316 317 318 317 319 318 316 315 315 314 314 314 313 313 313 313 313 312 312 312 312 314 314 315 316 317 317 318 319 320 321 321 321 321 322 322 323 327 330 332 333 332 330 329 330 332 332 332 330 330 331 331 332 332 332 331 331 332 332 332 330 330 331 332 329 322 309 313 328 333 335 335
317 320 322 323 324 322 320 319 320 319 319 319 318 318 318 318 318 318 318 318 319 318 318 317 316 316 317 317 317 319 318 316 315 315 314 314 314 313 313 313 313 313 312 312 312 311 312 313 313 314 316 316 316 317 318 320 321 321 322 322 322 321 323 327 331 332 332 331 329 330 332 332 332 331 330 330 330 330 331 331 331 331 331 331 331 331 330 330 331 332 331 315 310 326 333 336 336
320 320 321 322 322 319 318 319 320 320 319 319 318 319 318 317 317 318 318 318 318 318 317 316 315 316 316 317 317 318 318 315 315 314 314 313 313 313 313 313 313 313 312 312 312 312 312 312 313 313 314 315 315 316 316 317 318 319 321 322 323 324 325 326 329 331 332 331 330 330 331 332 332 331 330 329 329 329 329 330 330 330 330 330 330 331 330 331 331 332 334 321 309 322 333 335 336
321 322 321 321 320 317 316 317 319 320 319 319 318 318 317 317 317 318 318 317 317 317 317 316 316 315 315 317 318 318 317 316 315 314 313 313 313 313 313 313 313 313 312 312 312 312 312 312 312 313 314 315 315 315 315 315 316 316 318 319 321 324 326 327 327 329 331 332 331 331 331 331 331 330 329 329 328 328 327 328 330 330 329 329 329 330 330 331 332 332 334 326 310 319 332 334 336
321 323 321 321 320 318 317 318 319 320 319 319 318 317 316 317 317 317 317 317 317 317 317 315 315 315 315 317 318 318 318 316 315 314 313 313 313 313 313 312 312 313 312 312 312 312 312 312 312 312 313 314 315 315 314 315 315 315 315 315 316 318 321 325 327 327 329 331 331 331 331 331 331 330 329 328 328 327 326 327 328 330 329 329 329 328 330 330 332 331 333 330 315 319 333 334 335
321 322 321 320 321 320 319 319 319 320 320 318 317 317 316 317 317 316 316 316 317 317 316 315 314 314 315 316 317 317 317 315 314 313 312 312 312 312 312 313 313 313 313 312 312 312 312 312 312 313 313 314 315 315 315 314 314 314 314 314 313 313 314 319 324 326 327 329 330 331 331 330 330 329 328 328 327 327 326 326 327 328 328 328 328 328 329 329 331 331 332 332 320 319 332 335 335
320 321 320 321 322 320 320 320 320 319 319 318 317 316 315 317 316 316 316 316 316 316 315 314 314 315 315 316 317 316 316 315 314 313 312 312 313 313 313 314 315 314 313 313 313 312 312 312 312 312 313 314 314 315 315 315 315 314 315 314 313 313 312 314 320 326 327 327 328 329 330 330 330 329 328 327 326 326 327 327 327 327 328 328 328 327 328 328 328 330 331 332 325 320 329 334 335
319 322 320 321 320 319 320 320 319 318 318 318 317 316 316 317 315 315 316 315 315 315 314 314 314 314 315 315 316 315 315 314 313 313 313 313 314 314 315 316 315 315 315 314 313 313 311 311 311 312 313 313 314 315 315 315 315 315 314 314 313 313 313 312 315 324 328 327 327 327 329 329 330 330 328 327 326 326 327 327 326 326 327 327 327 327 326 326 326 329 331 332 328 323 327 333 335
318 321 321 321 319 318 319 319 320 319 319 318 316 316 317 317 315 315 315 314 314 315 315 314 314 314 314 314 314 314 314 313 313 313 312 312 313 314 315 315 315 316 315 313 315 316 314 312 310 311 311 312 313 314 315 316 315 315 315 314 314 313 313 312 312 319 328 329 327 326 328 329 330 330 328 327 326 326 326 326 326 326 327 327 327 326 325 325 326 328 331 332 329 325 327 331 335
318 321 322 321 319 318 319 319 319 318 318 318 317 317 316 316 316 315 314 313 314 315 316 315 314 314 314 314 312 313 314 313 312 312 311 311 311 312 312 312 312 313 312 312 314 317 318 317 313 311 311 310 311 312 313 314 315 315 315 315 314 313 312 312 311 316 326 330 328 326 327 329 330 329 328 327 326 326 326 326 325 325 327 327 327 326 325 324 325 327 331 333 330 326 327 331 335
320 323 321 320 319 318 318 318 318 317 318 318 318 317 316 316 316 315 314 315 315 316 316 315 314 314 313 312 311 313 314 312 311 310 309 309 309 310 310 310 310 310 310 310 311 312 314 317 318 317 314 311 310 311 311 312 313 313 314 315 315 314 311 311 312 314 323 329 329 328 327 328 330 329 327 327 327 326 326 326 325 325 326 327 327 326 325 324 324 325 329 333 331 327 326 330 336
320 322 321 320 319 318 318 318 317 318 318 318 318 317 316 315 315 314 314 316 316 316 315 314 314 313 312 312 312 313 312 310 309 309 308 308 308 309 309 308 309 308 308 309 309 309 309 312 315 318 318 315 313 313 313 313 313 312 312 314 315 315 312 310 311 313 319 327 329 329 327 327 328 329 328 328 328 328 327 327 326 325 326 327 327 326 325 324 324 325 329 332 333 331 328 331 335
320 320 320 320 318 317 317 317 317 317 317 317 317 316 316 315 314 314 314 315 316 315 314 314 313 312 311 311 312 312 310 308 308 307 307 307 307 307 307 307 307 307 307 307 307 307 306 307 309 312 316 316 316 318 318 317 317 317 315 313 314 315 314 311 310 312 316 323 328 329 328 327 328 329 329 328 329 328 327 328 327 326 327 327 326 325 324 323 323 326 330 332 333 333 331 333 334
319 318 319 318 317 317 317 316 316 316 316 316 316 316 316 314 313 314 314 315 315 315 314 313 312 311 311 312 311 310 308 308 307 307 306 306 305 306 305 305 306 306 306 306 306 306 304 305 306 307 309 311 314 318 321 321 322 322 322 319 315 315 316 315 313 313 315 318 324 328 328 328 329 330 329 329 328 328 328 328 327 326 327 326 326 325 324 324 324 327 331 333 334 334 332 333 333
317 318 318 318 317 317 316 316 315 314 315 315 315 315 314 314 314 314 314 315 314 314 313 312 311 311 312 311 309 308 307 306 306 305 305 304 304 304 304 304 304 305 305 305 305 304 302 302 304 306 307 308 310 314 319 321 322 323 323 323 321 318 317 317 318 316 317 318 320 326 328 329 330 330 330 329 328 328 328 328 327 326 326 326 326 327 326 325 326 328 331 332 332 332 332 333 332
316 318 318 317 316 316 315 315 314 313 314 314 315 314 313 314 315 314 313 314 314 314 313 312 311 311 310 309 308 307 306 305 305 304 304 304 303 303 303 303 304 304 304 304 304 303 302 301 302 304 305 306 308 311 316 319 321 322 323 324 323 322 318 316 320 320 320 320 321 325 328 329 330 330 330 329 328 327 328 328 327 326 326 326 327 328 327 327 328 329 329 332 332 330 330 331 330
316 317 317 316 315 315 315 314 313 313 313 314 314 313 314 315 314 313 314 314 313 313 312 311 311 311 309 307 307 305 304 304 303 303 303 303 303 303 303 302 303 303 304 304 303 302 300 300 301 302 302 304 306 308 313 317 320 321 322 324 323 323 320 314 317 321 322 323 325 327 328 328 329 329 330 329 328 326 327 328 327 326 326 327 328 328 328 328 328 328 330 332 331 329 328 329 328
316 317 317 315 315 315 314 313 313 313 313 313 313 314 315 314 313 313 314 314 313 313 312 312 311 309 307 306 305 304 303 303 302 302 302 302 302 302 302 302 301 302 303 303 303 302 301 300 300 300 301 302 303 305 310 315 318 320 321 323 323 323 322 316 315 320 321 324 327 328 327 328 329 329 330 329 328 326 326 327 327 326 325 327 328 328 328 328 328 329 330 331 329 328 328 326 325
316 316 316 315 315 314 313 313 313 313 313 313 313 314 315 313 312 313 314 314 313 312 312 311 309 307 307 305 304 303 302 302 302 301 301 301 301 301 301 301 301 301 302 302 302 301 301 301 299 299 300 300 301 303 306 310 316 319 320 321 322 323 323 320 318 320 321 322 326 327 327 328 328 328 329 328 327 326 325 326 326 326 326 327 328 328 328 327 327 327 327 327 326 326 325 324 324
315 314 314 314 315 314 313 314 313 312 313 313 313 313 314 313 313 313 314 313 312 312 311 309 308 307 305 304 303 302 302 301 301 301 300 300 300 300 301 301 301 301 301 302 301 300 300 300 299 298 298 299 299 301 302 304 310 315 318 320 321 322 323 322 321 321 321 321 323 325 327 327 327 328 328 328 327 326 325 325 325 325 326 327 327 327 327 326 326 324 323 323 322 322 322 322 323
314 313 314 315 315 314 314 313 313 313 313 313 313 313 314 314 313 314 314 313 311 311 311 309 307 306 305 304 303 302 301 301 300 300 300 300 299 299 300 300 301 301 302 302 301 300 300 300 299 298 298 298 298 299 300 301 304 309 314 317 319 321 322 321 321 321 321 321 321 324 327 327 327 328 327 327 328 327 326 325 325 326 325 326 327 327 325 325 326 324 323 321 319 320 319 320 321
313 313 314 315 314 313 314 314 313 313 313 312 313 313 314 314 314 314 314 312 311 311 310 308 307 306 305 303 303 302 301 300 300 299 299 299 299 298 298 299 300 301 301 302 301 300 299 298 297 297 297 298 298 298 299 299 301 303 307 313 317 319 321 321 321 322 321 321 321 322 326 327 326 327 327 327 327 327 326 324 325 326 326 325 325 327 325 324 325 324 323 321 319 320 319 319 319
313 313 314 316 315 313 314 314 314 313 312 312 313 312 314 315 315 314 314 313 311 310 309 308 306 305 304 303 302 302 301 300 300 299 299 299 298 298 298 298 298 300 300 300 299 299 298 298 297 296 296 296 297 297 298 298 299 300 303 310 314 315 317 320 321 322 322 322 322 321 323 325 326 326 326 327 327 326 326 324 324 325 325 324 324 326 325 323 323 323 321 319 319 319 319 319 319
314 314 315 317 315 314 315 314 314 314 312 313 313 311 313 314 314 314 313 312 311 309 308 307 306 305 303 303 302 301 301 300 300 299 299 298 298 298 297 297 297 298 299 299 298 298 298 298 297 296 295 296 296 296 297 297 298 299 300 305 310 311 312 317 320 321 322 322 322 321 321 322 324 326 326 326 326 326 326 324 323 324 325 324 324 326 324 322 322 321 319 318 318 318 318 318 318
316 315 315 317 315 314 315 314 314 314 313 314 312 311 312 313 313 313 312 311 309 308 307 306 305 304 303 302 302 301 301 300 299 299 298 298 298 298 297 297 297 297 298 298 298 298 297 297 297 297 296 295 295 296 296 297 297 298 298 299 306 309 309 314 319 320 321 321 321 320 320 321 321 323 325 326 326 326 326 324 323 324 324 323 322 326 324 321 321 320 319 318 318 318 318 318 317
317 316 314 315 315 314 314 313 314 314 313 313 312 311 312 313 313 312 311 309 308 306 306 305 304 303 302 302 301 301 300 300 299 299 298 298 298 298 297 297 296 297 297 298 298 297 297 296 297 297 297 296 296 295 296 297 296 297 298 297 300 304 305 309 315 319 319 320 320 320 320 320 319 321 324 325 325 326 325 324 323 323 323 321 320 325 324 322 321 320 319 318 317 318 318 318 317
316 315 314 314 314 313 313 313 314 313 312 311 312 313 312 312 311 310 309 308 306 306 305 304 302 302 302 301 301 300 299 299 298 298 298 298 298 297 297 297 296 296 296 297 297 298 298 297 297 296 297 297 297 297 297 297 297 297 297 298 298 300 302 304 308 314 318 319 319 320 321 320 320 321 323 324 324 324 325 324 323 323 322 320 319 322 325 323 321 319 318 318 317 317 318 318 317
314 313 313 313 313 313 313 313 313 312 311 311 311 312 311 310 310 309 308 307 306 305 304 303 302 302 301 301 300 298 298 298 298 298 297 297 297 297 297 297 297 296 296 296 297 298 298 298 297 297 297 297 298 298 298 299 298 298 298 298 297 298 300 302 303 307 312 315 317 319 321 321 320 321 322 324 324 323 324 324 324 323 322 321 318 320 324 323 321 319 318 317 317 317 317 317 317
312 312 312 313 314 313 313 314 313 311 310 311 310 310 309 309 309 308 308 306 305 304 303 302 302 302 301 300 299 297 297 297 297 297 297 296 296 296 296 296 296 296 296 296 296 297 298 297 297 297 297 297 297 298 299 299 299 299 300 298 297 298 299 301 302 303 305 309 313 317 319 320 320 321 321 322 323 322 323 324 325 323 321 321 318 320 324 323 321 320 318 317 316 316 316 316 316
311 312 313 313 313 313 313 314 312 310 309 310 309 308 308 308 308 308 307 306 304 303 302 301 301 301 300 299 298 297 296 296 296 296 296 295 295 295 295 295 295 295 295 295 296 296 296 297 297 297 297 297 297 297 298 299 299 300 300 299 298 297 297 299 301 302 304 305 308 313 316 318 319 320 320 320 321 322 323 323 324 323 321 320 318 320 323 321 321 321 320 317 316 315 316 317 316
311 312 313 313 312 312 313 313 312 310 309 309 309 308 308 308 307 306 305 304 303 302 301 301 301 300 299 298 297 296 296 296 296 295 295 295 295 295 294 295 294 294 294 294 295 295 295 295 296 296 297 297 297 297 297 298 298 299 299 299 299 298 296 297 299 300 303 304 305 308 312 315 318 320 321 320 320 321 322 323 323 322 321 321 318 319 321 320 320 322 321 319 317 315 316 318 317
312 313 313 312 313 312 312 312 311 309 308 309 309 308 308 308 305 304 304 302 301 301 301 300 300 299 298 297 296 296 296 295 295 295 295 295 294 294 294 294 294 294 294 294 294 294 294 295 295 295 295 296 296 296 296 297 298 298 299 299 299 299 297 296 297 299 300 302 304 306 308 312 315 317 320 321 320 320 322 323 322 322 321 321 319 319 320 320 319 320 320 319 318 318 317 318 318
312 313 313 313 313 311 311 311 309 308 308 308 308 308 308 306 303 302 301 301 300 300 300 300 299 298 297 296 296 296 295 295 295 295 295 294 294 294 294 294 294 294 294 294 294 294 294 294 294 295 295 295 295 296 296 296 297 298 299 299 299 299 298 297 296 297 298 300 302 304 306 310 313 315 317 319 320 320 322 323 322 321 320 320 320 319 320 321 320 319 318 317 319 320 318 318 319
312 314 313 313 311 309 308 308 308 308 308 308 308 307 307 306 304 301 300 300 299 299 299 299 298 297 296 296 296 295 295 295 295 295 294 294 294 294 294 294 294 294 294 294 294 294 294 294 294 295 295 295 295 296 296 295 296 297 298 299 299 299 298 298 296 295 296 298 300 302 304 306 310 313 315 317 320 321 322 323 322 321 320 320 320 320 320 321 321 318 316 316 317 320 317 316 319
311 313 311 309 307 307 308 308 308 308 308 308 307 306 307 308 306 302 301 300 299 299 299 298 297 297 296 296 295 295 295 295 295 294 294 293 294 294 294 294 293 294 294 293 293 293 293 294 294 294 294 295 295 295 295 295 295 296 296 298 299 299 298 298 297 295 294 296 298 300 301 303 306 310 312 314 318 320 321 323 322 321 321 320 320 321 320 321 321 318 314 313 315 319 319 316 318
311 310 307 306 306 307 307 308 307 307 308 308 307 306 307 307 307 304 302 300 299 299 299 298 297 297 296 296 295 295 295 295 294 294 293 293 293 293 293 293 293 293 293 293 293 293 293 293 293 294 294 294 295 295 295 295 295 295 295 296 298 299 299 298 298 296 294 294 296 297 299 301 304 308 309 311 314 317 319 320 321 321 321 321 320 321 321 321 321 318 316 314 313 316 319 319 318
310 307 306 305 306 306 307 308 308 307 307 307 307 307 306 306 308 305 302 301 299 298 298 298 297 296 296 296 295 295 295 294 294 293 293 293 293 293 293 293 293 293 293 293 293 293 293 293 293 293 294 294 294 294 295 295 295 295 295 295 296 298 299 298 298 297 295 294 295 295 297 299 302 306 308 307 310 315 319 319 320 321 321 321 320 320 320 321 321 320 318 316 312 312 317 318 318
308 305 305 306 306 307 308 308 308 307 306 306 307 308 307 308 308 305 303 302 300 298 297 297 297 296 296 295 295 295 294 294 294 293 293 293 293 293 293 293 293 293 293 293 293 293 293 293 293 293 293 293 294 294 294 295 295 295 295 295 295 297 298 298 298 298 296 295 294 295 295 297 299 304 307 306 306 311 319 321 320 320 320 320 319 319 319 319 320 320 318 315 312 312 315 316 317
306 305 306 308 308 309 309 308 306 305 306 306 307 308 307 308 308 306 304 302 299 298 297 297 297 296 295 295 295 294 294 294 294 293 293 293 293 293 293 293 293 293 293 293 293 293 293 293 293 293 293 293 293 293 294 294 295 295 295 295 295 296 297 298 298 298 297 295 294 294 294 295 297 300 305 307 305 307 314 320 320 319 320 319 319 319 319 318 318 320 318 315 314 313 314 316 316
306 307 307 308 308 309 308 306 305 305 306 307 307 307 306 305 305 305 302 300 298 297 297 296 296 296 295 295 295 294 294 294 293 293 293 293 293 293 293 293 293 293 293 293 293 292 293 293 293 293 293 293 293 293 293 293 294 295 295 295 295 295 296 297 298 298 298 295 293 293 294 294 295 297 302 306 305 304 308 316 320 319 320 319 319 320 319 318 319 319 319 317 316 314 315 316 316
307 307 306 307 307 307 306 306 305 304 307 307 305 304 303 302 303 302 299 298 297 296 296 295 296 296 295 295 294 294 294 293 293 293 293 293 293 292 293 292 292 293 292 292 292 292 292 292 292 292 292 292 292 292 293 293 293 294 294 294 295 295 295 296 297 298 298 296 293 293 294 294 294 295 299 304 305 304 305 312 319 320 319 319 319 319 319 319 319 319 319 318 317 314 314 317 317
307 305 305 306 306 306 306 306 305 306 307 305 302 302 300 301 302 300 297 297 296 296 296 295 295 295 295 294 294 294 294 293 293 293 293 292 292 292 292 292 292 292 292 292 292 292 292 292 292 291 291 291 291 291 292 292 292 293 293 294 294 295 295 295 296 298 298 296 293 293 293 294 294 294 296 301 305 305 304 308 315 319 319 318 319 319 319 319 319 319 319 318 317 315 314 316 317
304 304 304 305 305 304 305 305 305 306 306 303 301 301 299 301 302 299 297 297 297 296 296 296 295 295 294 294 294 294 293 293 293 293 292 292 292 292 292 292 292 292 292 292 291 291 291 291 290 290 290 290 290 291 291 292 292 292 293 294 294 294 295 295 296 297 298 297 294 292 293 294 294 294 294 298 302 304 304 305 309 315 318 318 318 319 319 318 318 318 318 318 317 316 314 315 317
303 303 303 303 303 303 303 304 304 304 303 302 301 300 301 302 301 298 297 297 297 297 296 295 295 294 294 294 294 293 293 293 293 292 292 292 292 292 292 292 292 291 291 291 290 290 290 289 288 288 288 288 288 289 290 291 292 292 293 293 293 294 294 294 295 296 297 297 295 292 293 294 294 294 293 295 299 302 304 305 306 311 317 318 318 318 318 318 318 317 317 317 316 315 315 316 317
303 302 302 302 302 302 302 302 302 301 300 300 300 301 302 301 299 298 297 297 297 297 296 295 295 294 294 294 293 293 293 293 292 292 292 292 292 292 292 291 291 291 290 290 289 289 288 287 286 285 285 285 285 286 288 289 290 291 292 293 293 293 294 294 295 296 297 298 296 293 292 293 294 294 293 294 297 300 303 304 305 308 314 317 317 317 318 317 317 317 316 316 316 315 315 316 317
302 301 302 301 300 300 300 300 301 300 299 301 301 301 301 300 298 297 297 297 297 296 295 295 294 294 294 294 293 293 293 293 292 292 292 291 291 292 291 291 291 290 289 288 288 287 286 285 284 284 284 284 283 283 285 287 288 289 290 291 292 293 293 294 294 295 296 298 297 294 292 293 294 294 293 293 295 299 302 304 305 306 311 315 316 316 317 317 317 316 315 315 316 315 314 314 317
301 301 300 299 298 298 297 298 299 300 300 302 301 300 300 300 299 297 297 297 296 295 295 295 294 294 294 293 293 293 293 292 292 291 291 291 291 291 290 290 290 289 288 287 286 285 284 284 284 285 284 283 283 282 283 284 285 286 288 289 290 291 293 293 294 295 295 297 297 294 292 293 294 294 294 293 294 297 301 303 304 305 308 314 316 316 317 317 316 316 315 315 317 316 313 313 315
299 299 298 298 298 298 298 298 298 299 300 300 301 300 299 300 299 298 297 296 295 294 294 294 294 294 294 293 293 293 292 292 291 291 291 291 291 290 290 289 289 288 287 285 285 284 283 283 283 284 283 282 282 281 282 282 282 283 285 287 288 290 292 293 294 295 295 297 297 294 292 292 294 294 293 293 293 296 300 302 304 304 306 311 316 316 316 316 316 316 316 316 317 315 314 315 315
297 298 298 297 297 297 298 298 297 298 298 299 300 299 299 299 298 297 296 295 295 294 294 294 294 294 293 293 293 293 292 292 291 291 291 290 290 289 289 288 287 286 285 284 283 282 282 282 282 282 282 282 281 281 282 282 281 281 283 284 286 289 290 292 293 294 295 296 297 295 292 292 294 294 293 293 293 294 298 301 302 304 305 308 314 317 316 316 315 315 315 315 315 314 315 316 316
298 298 297 297 297 297 297 297 296 296 297 297 297 298 298 298 296 296 296 295 294 294 293 294 294 293 293 293 292 292 292 291 291 290 290 290 289 289 288 287 286 285 284 283 282 282 281 281 281 280 280 280 281 280 281 281 280 280 281 282 285 288 290 290 291 293 294 296 297 296 293 292 293 294 293 293 293 293 296 300 301 304 305 306 312 316 316 316 315 315 314 314 313 314 315 316 316
299 298 298 297 297 297 297 297 296 295 296 296 296 296 297 297 296 296 296 295 295 294 294 294 294 293 293 293 292 292 291 291 290 290 289 289 288 288 287 286 285 284 283 282 282 282 281 280 280 280 279 279 279 280 280 280 279 279 280 281 283 286 289 290 291 292 293 295 297 296 294 292 293 294 294 293 293 293 295 298 300 303 304 305 309 315 316 315 315 315 314 314 313 314 315 315 315
Wind_Speed
3 2 3 3 3 1 2 4 3 3 3 1 4 1 4 5 3 5 5 6 4 4 8 8 8 8 7 8 10 13 12 10 7 7 7 9 19 23 20 21 21 21 20 16 13 11 9 10 12 14 16 17 18 19 18 18 18 17 18 19 18 17 17 16 17 16 16 16 16 17 17 15 14 14 15 16 16 18 18 20 22 20 19 18 16 16 16 17 18 19 18 17 17 17 21 21 21
3 2 2 2 3 2 2 3 3 2 3 3 5 3 4 1 2 6 8 8 5 5 7 7 8 7 8 9 10 12 8 7 8 10 11 15 20 16 17 22 22 22 19 16 13 11 10 10 11 12 14 15 17 18 19 19 19 18 18 20 20 20 18 18 18 17 16 16 17 17 17 16 15 15 15 16 16 16 16 18 20 20 18 17 16 16 16 17 18 18 19 19 17 18 21 22 22
4 2 1 1 3 5 3 3 3 2 0 3 4 4 3 3 5 7 8 7 6 6 5 5 7 6 7 8 7 9 7 8 9 10 12 14 14 15 22 25 22 21 19 16 13 12 12 11 10 10 12 13 15 17 18 19 20 20 20 20 22 22 21 19 19 18 17 17 16 16 16 16 15 15 16 15 14 13 13 15 16 17 17 16 15 15 16 17 18 18 19 19 19 19 21 22 23
5 2 2 3 5 6 4 3 2 3 2 3 3 6 6 5 7 7 8 7 6 5 4 5 5 2 5 8 9 9 7 10 9 9 12 13 16 20 23 23 22 21 18 15 13 14 13 13 12 11 12 13 15 16 18 19 20 21 21 22 22 22 23 21 20 21 20 18 17 16 16 16 15 15 16 15 14 13 13 14 14 15 16 16 15 15 16 16 17 18 19 20 19 18 20 22 24
5 3 1 4 6 2 3 2 1 2 4 3 2 6 6 6 7 8 8 7 5 4 3 5 4 2 5 7 7 7 8 11 10 11 12 14 18 20 19 20 20 19 18 15 14 15 16 17 16 16 17 17 18 19 20 20 21 22 23 24 23 23 23 22 21 22 22 20 19 18 17 17 17 17 16 15 15 14 14 14 14 15 16 16 15 15 17 17 17 17 19 20 19 18 20 22 24
6 5 3 4 6 4 3 1 1 2 5 4 2 5 6 7 8 8 9 5 3 3 3 4 5 7 8 5 6 6 9 12 12 12 13 15 16 16 17 18 18 19 18 16 15 16 19 20 20 20 20 20 21 21 22 23 23 23 24 25 25 24 23 22 22 23 23 21 20 20 20 19 19 19 16 15 15 16 16 16 16 16 16 16 15 15 16 17 18 18 18 20 19 18 21 23 24
4 4 3 4 6 4 3 1 2 3 4 3 3 4 6 7 8 9 9 5 3 2 2 3 6 8 7 4 6 6 9 12 12 12 12 14 15 15 16 17 18 19 19 18 16 16 20 21 21 21 20 20 21 23 24 24 24 25 26 26 27 26 24 23 23 23 23 22 21 21 21 21 21 19 17 16 17 17 18 18 18 18 17 17 16 15 15 16 18 19 18 20 20 19 23 25 25
5 4 4 4 4 4 3 1 2 3 3 2 1 2 5 7 8 7 8 6 4 4 2 2 4 6 4 6 8 6 9 13 12 12 13 14 14 16 17 18 19 19 20 20 18 16 19 21 21 20 20 20 21 23 25 26 26 26 27 27 28 28 27 25 24 24 24 24 23 22 22 23 23 21 19 18 18 19 19 19 19 19 19 18 17 16 16 16 18 19 18 20 22 22 24 26 26
6 5 5 4 3 3 2 1 3 3 4 3 2 2 3 6 8 6 7 7 6 7 5 5 3 5 7 11 11 6 6 11 13 13 14 14 16 19 21 21 20 19 20 21 20 18 19 20 20 21 21 21 22 23 25 26 27 28 28 29 29 30 29 27 26 26 26 25 24 24 24 25 24 23 21 20 20 20 20 20 20 20 20 19 18 18 17 17 18 19 19 21 24 25 25 26 27
6 5 4 3 4 4 2 2 3 3 5 4 3 3 3 6 8 6 6 7 7 8 6 4 4 5 10 13 9 5 7 10 15 17 18 20 21 22 23 22 21 20 19 21 21 20 20 20 20 21 22 23 23 23 25 26 27 28 29 29 29 30 30 29 28 27 27 27 26 26 26 26 26 25 23 22 21 21 22 21 21 21 20 19 19 19 19 19 19 20 20 21 26 27 26 26 26
6 5 3 4 4 3 1 3 3 4 5 4 4 5 5 6 6 6 8 8 8 8 5 4 4 7 11 10 6 6 8 11 19 24 24 24 24 22 21 21 23 21 20 20 21 21 21 22 22 22 23 25 25 25 26 26 27 28 28 29 29 29 29 30 31 30 28 28 28 27 27 27 27 26 25 23 22 22 23 22 22 22 21 21 20 20 20 20 20 21 21 22 27 28 27 27 27
5 3 3 5 3 3 3 3 3 4 5 5 4 4 6 7 5 7 10 9 10 8 6 6 7 9 9 7 8 8 7 15 27 28 25 23 23 22 21 21 22 22 21 21 22 23 23 24 24 23 23 25 27 27 27 28 28 28 29 29 30 31 31 31 32 32 31 29 29 29 28 28 27 28 27 25 24 24 24 24 23 23 23 22 21 21 21 22 21 21 22 23 27 29 27 27 27
5 5 5 4 3 3 2 2 2 2 4 5 5 3 5 7 7 10 9 10 11 8 8 9 10 6 5 8 9 10 13 22 31 28 25 24 21 21 20 20 21 22 22 22 21 22 23 25 26 27 26 26 27 28 29 29 30 30 30 31 32 32 33 33 33 34 33 31 31 30 29 29 28 28 28 27 26 25 25 25 25 25 24 23 22 22 23 23 23 22 23 25 27 30 29 27 28
5 6 5 4 2 2 3 1 2 2 3 5 4 3 5 5 6 10 10 10 9 9 8 9 8 5 7 10 9 15 18 23 30 27 25 23 22 22 22 24 25 26 26 25 24 23 22 23 25 27 29 29 29 29 30 31 31 32 32 32 32 33 33 34 34 34 35 34 32 31 31 30 28 29 29 28 27 26 26 26 27 26 25 24 23 23 24 25 24 23 23 25 28 31 30 28 29
5 6 4 4 3 1 1 2 2 3 2 4 2 3 7 4 3 8 8 9 8 9 7 5 7 5 9 11 12 19 20 22 28 27 25 24 23 24 26 29 30 30 30 30 29 27 24 21 22 24 27 30 31 32 33 33 33 33 33 33 32 33 34 34 35 35 36 35 34 33 32 31 29 29 29 29 28 27 27 27 27 27 26 25 24 25 25 25 25 24 24 26 28 30 31 29 31
4 5 4 4 2 1 1 2 1 2 3 4 4 1 7 3 1 5 6 8 9 8 5 5 6 5 10 14 17 22 20 20 23 23 25 25 23 22 22 23 24 25 27 29 31 31 29 24 21 21 23 26 29 33 34 35 35 35 35 34 33 34 34 35 35 35 36 36 35 34 33 32 30 30 30 29 28 28 28 28 27 27 26 25 25 25 25 25 24 24 24 25 29 32 31 30 32
3 3 4 4 1 1 2 2 2 3 4 3 4 2 8 6 3 4 8 7 8 5 4 6 6 6 12 17 21 22 17 18 20 22 26 27 25 22 21 22 22 22 23 24 23 25 27 27 26 23 21 22 25 29 32 35 36 37 37 36 35 34 34 35 35 35 37 37 36 34 33 32 31 31 31 30 29 29 29 28 28 27 27 27 26 25 24 25 24 25 24 24 29 33 32 29 34
3 3 3 3 1 3 4 3 4 6 6 5 5 5 6 8 8 8 9 4 5 3 8 13 11 11 16 18 21 20 17 20 22 24 28 28 26 24 24 24 25 27 27 26 24 22 21 23 25 25 24 22 22 25 28 31 34 35 37 37 37 36 34 34 35 35 36 37 37 36 35 33 33 33 32 31 30 29 29 29 28 27 27 27 26 25 25 25 25 25 24 23 27 33 33 31 37
4 3 4 1 5 5 4 4 4 8 9 11 10 6 5 7 8 10 10 6 2 6 12 16 18 18 20 20 20 19 19 22 25 26 29 29 27 25 25 25 26 29 31 30 29 29 27 23 22 23 24 24 23 23 24 27 30 33 34 36 37 37 36 34 34 35 35 37 37 37 36 34 34 34 33 31 29 28 28 28 27 26 27 27 27 26 25 24 24 24 22 23 27 31 32 33 38
2 3 4 4 6 4 4 3 2 8 12 13 11 9 7 3 6 9 8 8 6 11 13 16 19 21 23 23 20 19 22 24 25 27 29 30 29 26 26 26 27 29 30 30 31 32 34 31 27 24 23 24 24 21 22 23 24 26 29 32 34 36 36 35 35 34 35 36 36 36 35 33 32 32 33 32 30 29 28 28 27 27 26 26 27 26 26 25 23 21 18 21 27 32 32 33 40
1 3 2 7 4 2 5 2 2 8 13 12 12 12 7 2 5 7 7 7 5 12 16 16 18 20 21 20 19 20 23 25 26 27 29 30 30 28 27 27 26 27 28 30 31 33 37 37 34 32 28 26 24 22 22 21 21 22 23 27 31 34 34 34 34 33 34 35 35 35 35 33 31 30 32 32 31 29 29 29 27 27 27 26 25 25 25 23 21 18 16 22 31 35 35 37 43
3 3 3 7 3 2 4 2 3 9 13 12 11 9 7 6 5 3 6 5 7 12 15 14 16 17 17 18 21 22 24 25 26 27 28 30 30 30 29 28 27 28 29 31 32 34 38 39 38 36 33 30 27 25 23 22 22 22 22 23 26 31 31 30 31 32 33 34 34 34 34 33 31 31 31 31 31 28 27 28 28 28 27 25 23 24 25 21 19 18 19 25 36 38 38 44 45
3 1 5 6 4 3 2 2 4 9 12 11 9 8 9 9 4 4 5 7 10 13 11 11 15 13 14 19 22 23 25 25 26 26 26 28 29 29 29 29 29 29 29 32 33 36 38 39 39 38 36 34 30 27 24 22 22 22 23 24 25 28 30 30 30 31 31 33 33 32 34 32 32 32 30 31 31 28 27 28 29 28 26 26 24 23 23 20 18 19 22 28 36 38 39 46 45
4 1 5 5 3 2 1 2 6 8 10 11 11 11 10 7 3 3 6 10 12 14 8 10 13 13 17 20 22 23 24 25 25 25 25 26 27 28 29 31 30 29 30 31 33 37 38 38 39 38 38 37 35 31 26 23 22 21 22 25 26 26 29 31 30 30 30 31 30 30 32 33 34 33 30 31 30 30 30 28 29 29 26 26 25 23 21 20 18 19 24 30 37 41 41 44 44
5 3 4 3 0 1 1 2 5 6 8 10 12 13 6 2 1 3 7 9 14 15 9 11 13 15 18 21 21 23 24 25 26 26 26 26 27 29 31 34 35 33 31 31 32 36 39 39 38 37 38 39 38 36 30 26 23 22 22 23 26 26 29 31 29 30 30 29 29 30 32 33 34 32 29 30 30 31 30 27 28 30 27 25 25 23 21 19 18 18 24 31 37 41 39 39 40
2 5 5 4 3 1 2 2 1 2 4 9 12 13 3 4 3 4 7 9 15 13 11 13 15 16 18 20 21 22 24 26 26 27 27 27 30 32 32 34 37 35 33 31 33 37 38 38 39 38 37 38 39 38 35 31 26 24 23 23 26 27 29 28 26 29 31 32 33 32 32 33 34 31 30 30 29 31 30 27 28 29 27 26 25 24 22 22 21 22 25 30 33 35 34 34 32
2 8 9 9 3 4 4 4 4 4 3 10 13 14 6 3 6 4 6 11 15 11 13 15 16 18 18 18 20 21 24 25 25 27 28 30 32 32 32 33 34 33 33 32 35 39 38 38 40 40 38 36 37 37 37 36 31 27 25 24 25 27 29 28 27 28 31 33 35 35 34 35 35 32 29 28 27 29 29 27 27 28 27 27 25 24 27 29 28 29 29 31 36 35 31 33 29
5 8 10 7 6 8 6 7 7 7 3 11 13 15 8 5 5 3 7 13 15 9 14 16 15 17 17 18 19 20 23 24 25 28 29 30 30 30 30 31 31 31 30 30 33 38 39 40 42 43 41 38 37 36 36 37 36 32 28 26 26 27 29 30 29 29 31 32 34 36 35 34 35 33 28 27 28 28 28 27 26 27 27 27 25 25 30 34 34 34 32 33 35 29 24 30 32
5 5 7 2 11 10 5 6 9 7 4 9 12 12 5 6 5 5 9 13 12 9 14 15 14 14 15 16 17 19 22 23 26 28 27 26 27 28 29 30 31 30 29 28 32 37 40 42 44 44 42 41 40 37 36 36 36 36 33 30 27 27 29 30 30 30 32 32 33 36 37 36 37 33 29 30 32 29 29 29 27 27 28 28 28 26 29 37 37 35 33 32 28 23 25 31 35
4 3 4 2 7 8 5 4 8 6 4 8 10 7 1 3 8 5 10 11 6 10 13 13 13 13 13 14 15 18 21 23 25 26 26 25 26 28 28 31 32 32 31 30 33 36 39 42 44 45 43 43 42 39 37 35 35 36 35 33 30 30 30 31 31 30 32 32 32 35 37 38 38 34 31 33 35 31 30 30 29 28 28 30 30 28 32 40 39 35 32 29 26 26 31 32 35
3 3 3 2 1 4 7 4 4 3 3 7 9 5 5 6 4 5 14 8 7 11 13 11 11 11 11 13 14 16 19 21 22 23 26 25 26 28 28 31 34 33 32 32 34 36 37 39 42 44 45 45 43 41 39 36 35 34 34 34 32 32 30 31 32 32 31 32 33 34 36 38 37 37 35 36 36 33 32 32 30 29 28 31 31 30 37 42 38 35 33 30 30 31 33 32 35
3 2 1 0 2 1 6 6 5 3 4 7 8 6 7 8 10 15 10 10 13 13 12 11 11 11 11 12 14 16 17 19 21 22 25 25 26 28 28 30 33 33 31 31 34 36 36 38 39 42 45 46 44 42 41 39 36 33 33 34 33 32 31 30 31 33 32 32 33 33 35 37 38 39 39 40 37 32 34 35 33 31 30 33 32 32 40 43 37 34 34 32 33 35 35 34 37
2 1 3 3 3 4 1 6 7 7 6 7 5 5 6 9 14 13 15 16 14 14 12 11 10 10 11 12 13 16 16 19 23 24 27 27 27 28 28 29 31 31 29 29 31 33 34 37 37 38 41 43 44 44 43 41 40 36 34 33 34 34 32 30 29 32 33 33 36 36 35 35 38 40 41 43 39 33 35 37 35 34 33 34 33 33 41 42 38 37 37 35 35 37 38 38 42
2 4 4 5 5 6 3 3 4 7 7 7 4 4 7 11 12 14 18 14 15 14 11 11 10 10 10 11 14 17 18 21 25 24 26 26 25 26 26 27 28 27 27 27 29 29 31 33 35 36 36 36 39 41 41 41 42 40 36 33 33 35 35 33 30 31 32 33 36 38 38 36 36 39 42 45 43 36 34 35 35 36 36 35 33 34 40 42 41 41 40 39 39 39 40 42 46
6 6 6 7 6 7 7 3 4 6 6 5 4 5 7 12 8 12 13 13 16 13 10 9 8 9 10 12 15 19 20 20 22 22 23 24 23 25 25 25 24 25 26 26 28 27 28 31 32 35 35 33 34 36 36 36 39 40 38 36 34 33 35 36 35 34 33 32 33 35 37 39 39 40 43 44 44 41 37 34 35 37 38 35 35 35 40 43 44 43 40 41 43 41 43 46 47
8 8 7 8 8 7 8 4 6 7 5 3 4 8 8 13 6 9 11 13 15 11 10 8 7 8 9 12 15 19 20 19 19 20 21 22 23 24 24 23 23 25 26 27 28 27 28 31 31 32 33 34 34 34 33 33 36 36 35 39 39 36 35 36 37 37 36 34 31 31 34 39 43 43 44 44 43 42 40 36 35 37 38 37 36 37 41 44 44 45 44 45 47 46 47 48 49
7 8 8 9 10 8 6 3 6 7 4 4 7 10 11 14 3 10 10 12 13 10 9 7 7 7 10 12 14 18 18 17 17 19 21 22 22 24 25 25 26 27 28 28 28 28 29 31 31 31 32 34 34 34 34 32 33 33 33 37 39 39 39 39 39 39 38 37 33 31 31 35 41 43 43 44 45 43 41 40 37 37 39 38 37 39 42 44 44 46 47 48 49 50 50 49 49
7 8 8 9 8 8 8 3 4 5 5 5 6 10 15 10 6 11 8 10 10 8 8 8 8 9 10 13 14 15 16 16 18 21 22 23 25 27 28 28 29 29 30 30 29 30 31 31 31 32 33 34 34 34 34 33 32 31 33 35 35 37 40 41 41 40 38 38 35 33 32 32 36 43 44 43 44 43 42 44 42 39 40 40 38 39 42 44 46 48 49 50 50 50 51 50 50
8 6 7 8 6 8 5 2 4 6 7 5 6 10 13 2 13 10 9 11 10 8 8 8 9 9 10 12 14 16 18 18 20 23 25 27 28 29 30 30 30 30 31 31 31 32 32 31 32 34 35 35 35 34 34 34 34 32 32 32 32 33 37 40 42 40 38 37 35 32 32 32 34 38 43 44 42 42 44 46 48 45 41 42 42 40 42 47 49 50 49 49 51 51 51 50 52
7 6 7 8 6 8 3 1 8 11 5 3 6 9 6 7 12 9 11 13 11 10 9 8 8 9 10 12 15 18 20 20 22 24 26 28 29 30 29 29 30 30 30 30 31 33 33 33 35 37 37 36 36 36 35 35 35 34 31 30 31 31 32 36 40 41 39 37 36 33 31 31 32 32 36 44 44 41 45 49 50 50 47 45 45 44 45 48 50 51 50 49 52 54 52 51 52
7 4 5 7 6 8 8 8 14 9 2 4 7 9 3 8 10 8 10 11 11 9 8 7 6 8 10 13 16 17 18 19 21 24 29 31 31 33 33 33 33 32 32 33 34 35 35 36 38 38 38 38 38 37 37 37 36 34 31 31 32 32 33 34 38 44 43 39 38 37 34 31 32 31 32 40 47 44 46 51 51 50 52 48 47 48 48 49 49 50 52 52 53 56 55 53 53
7 2 3 6 7 9 11 12 13 8 2 5 9 8 5 5 10 10 9 8 8 7 5 6 7 10 13 16 17 17 17 18 20 25 32 34 34 35 36 37 37 36 36 36 37 37 38 39 40 40 39 38 39 39 39 38 36 35 33 32 31 33 34 32 34 43 46 43 40 40 39 36 32 32 32 35 44 49 48 49 51 50 52 51 48 48 49 49 50 51 52 52 52 55 57 55 55
6 3 4 6 7 9 11 12 9 6 7 5 5 5 6 5 8 12 12 8 7 6 5 6 9 13 15 16 17 19 20 21 23 30 36 37 36 36 38 39 38 38 38 38 38 38 40 43 43 43 42 40 39 39 39 38 37 36 34 32 31 32 34 32 31 37 44 45 42 41 41 40 35 30 33 35 38 47 50 47 48 50 51 52 51 49 48 49 51 53 52 50 51 53 56 56 57
4 5 6 7 9 10 11 10 7 7 10 9 5 7 7 8 5 11 13 9 6 3 4 6 10 14 16 17 19 21 23 25 27 33 38 38 37 38 39 40 39 39 40 40 41 41 43 45 46 46 44 43 42 40 40 38 38 37 35 34 33 32 33 35 33 33 39 44 44 42 41 40 38 31 30 35 37 41 49 51 50 51 52 52 53 51 50 51 51 53 53 50 51 54 56 59 59
3 8 7 7 8 9 10 8 8 8 8 8 6 6 6 7 3 10 10 8 3 2 5 7 11 15 18 18 20 23 26 27 27 30 34 36 37 38 38 40 40 40 41 41 42 44 47 49 49 49 47 46 44 42 42 40 38 38 37 36 35 33 32 35 36 33 35 40 43 43 41 41 39 34 29 31 38 39 43 52 52 52 53 51 52 52 51 52 51 52 55 55 54 55 57 60 61
5 8 7 8 8 9 9 7 8 7 6 9 8 8 6 7 3 7 7 6 1 4 5 8 13 16 19 19 22 26 29 28 28 30 33 35 37 38 38 39 40 41 42 44 46 49 53 54 53 51 48 47 45 44 42 41 40 39 38 37 36 35 33 34 36 36 35 37 42 43 42 42 40 37 31 28 36 40 40 49 53 51 54 53 51 52 53 53 52 53 56 57 56 56 58 60 63
7 7 8 8 8 8 8 6 5 5 5 5 4 6 5 6 3 2 3 3 2 4 5 8 13 16 19 21 24 28 28 28 29 31 34 36 37 38 39 40 42 44 46 49 53 56 56 55 54 51 48 46 46 44 43 43 42 39 39 38 37 37 36 34 35 37 36 38 42 43 42 42 41 39 34 29 34 40 41 44 50 50 55 58 55 54 56 54 53 54 55 56 57 58 59 61 62
6 5 6 7 6 6 6 3 1 4 5 1 6 3 4 7 3 2 5 5 4 4 5 8 12 17 21 23 25 27 27 27 29 32 35 37 38 40 41 43 46 50 52 54 56 58 55 52 50 49 47 46 46 45 44 45 44 41 40 40 39 37 36 35 34 35 37 39 42 42 42 43 41 40 36 31 32 38 40 40 47 52 54 57 57 55 57 56 54 55 56 57 59 58 59 62 60
4 3 4 6 6 6 5 3 2 6 4 4 6 3 3 10 7 5 10 7 5 4 6 9 13 19 22 23 25 27 27 28 30 33 36 37 39 42 45 47 51 54 55 56 57 56 52 49 47 48 49 48 47 46 45 45 45 43 42 41 39 38 36 36 35 34 36 39 41 41 41 43 41 40 38 33 32 35 37 38 42 52 55 56 58 57 56 57 55 55 56 57 59 58 58 62 61
1 2 3 4 5 6 6 5 5 6 2 3 1 5 5 9 6 9 11 7 5 6 8 11 16 20 22 23 26 27 27 28 30 34 36 38 41 45 47 49 52 55 56 56 55 52 49 47 46 48 48 46 46 46 45 44 45 45 43 40 39 37 37 36 35 35 36 37 40 41 40 42 40 39 38 35 34 34 36 38 39 46 55 58 58 58 57 56 56 55 55 56 59 59 58 61 61
1 1 1 2 3 4 6 5 6 7 7 5 4 4 5 6 1 10 9 6 4 7 10 14 19 21 22 23 24 26 27 28 31 34 37 41 45 46 46 48 51 53 54 54 53 51 48 45 47 50 50 49 50 49 45 43 44 43 40 40 39 36 37 37 35 36 37 38 41 41 40 42 40 38 38 35 34 34 35 39 40 41 52 59 57 58 58 56 57 56 55 59 60 58 57 59 61
2 2 0 1 1 4 5 7 7 6 9 8 4 4 5 1 6 10 8 5 2 8 13 17 21 22 22 23 24 26 27 30 32 34 39 45 47 46 46 48 49 49 52 53 52 50 49 50 54 54 50 51 54 52 49 46 44 43 40 39 40 38 37 38 36 35 36 38 42 41 40 42 40 38 37 35 34 35 34 37 40 40 46 58 57 56 58 56 58 58 56 60 62 58 57 57 59
2 2 1 2 3 1 5 8 5 2 7 7 4 5 5 1 6 9 7 3 2 8 13 18 21 22 22 22 24 27 29 31 33 36 41 45 45 45 47 49 47 45 49 53 50 48 49 52 54 52 48 49 52 49 45 44 45 48 45 40 40 39 38 38 36 36 34 36 42 42 40 43 40 37 37 35 34 34 33 35 39 41 42 53 59 55 58 59 58 60 58 60 63 59 56 57 58
1 2 2 3 3 0 3 4 3 3 8 6 5 8 8 4 3 6 7 1 6 9 13 17 20 21 21 22 25 28 29 31 35 40 43 44 44 47 50 50 48 46 49 52 49 48 50 49 49 51 49 48 49 47 45 45 46 51 52 45 41 39 38 37 36 36 35 35 41 42 40 42 41 36 37 36 35 34 33 33 37 40 40 48 60 58 58 60 58 59 59 61 64 60 57 58 59
1 1 1 1 2 2 4 3 3 5 8 6 7 9 9 8 3 5 4 4 8 10 14 16 18 20 22 24 27 30 31 33 40 45 45 45 46 49 50 50 50 49 50 52 50 49 50 47 46 47 46 46 46 45 46 47 46 47 49 47 44 42 38 36 36 36 35 35 41 43 40 41 41 36 36 36 35 34 32 32 34 37 38 42 57 61 58 59 59 59 61 62 64 61 59 60 61
3 1 1 1 2 4 4 2 1 4 6 6 9 9 5 4 2 4 1 6 7 11 14 13 17 21 23 26 29 32 34 37 43 46 45 45 46 49 49 49 52 51 49 50 50 49 49 46 45 45 44 45 45 43 42 44 45 45 43 42 44 42 36 33 35 37 35 35 41 42 40 41 41 37 36 37 35 34 31 31 31 33 37 39 51 63 60 59 59 58 62 63 62 61 61 61 62
4 4 4 4 3 2 3 3 2 3 6 6 8 9 4 3 4 1 3 5 7 12 14 13 18 23 25 28 30 32 36 39 43 42 42 44 45 48 48 47 50 51 49 49 49 50 50 46 44 45 45 42 42 42 42 44 46 46 44 42 43 42 34 31 32 35 36 36 39 40 40 41 41 38 36 37 36 35 31 30 30 32 37 38 44 62 62 59 60 59 61 63 61 61 61 60 62
4 5 6 6 6 4 3 5 2 2 5 6 6 11 8 3 2 2 2 3 8 13 15 15 19 24 26 28 30 33 36 39 40 39 40 43 45 46 45 46 48 48 49 51 50 51 50 47 45 45 45 43 42 43 42 44 45 44 43 43 42 43 39 33 31 31 33 35 37 38 38 40 41 39 36 37 37 35 32 30 30 31 37 37 38 55 63 59 60 61 61 62 61 61 62 62 64
Wind_Direction
13 23 44 30 88 114 227 238 248 192 239 66 63 36 59 32 321 325 359 357 337 39 7 335 321 313 303 315 322 316 305 299 300 308 329 339 327 327 327 326 329 326 321 316 310 306 291 272 263 257 256 257 259 261 259 256 257 253 245 241 241 242 242 239 240 244 244 246 248 249 252 252 252 255 260 265 267 266 266 267 269 269 268 267 264 262 261 259 254 250 249 246 237 234 238 239 239
8 38 54 51 132 207 235 225 268 187 213 102 72 26 39 335 305 353 359 354 343 356 341 319 310 294 291 291 294 299 299 309 302 304 315 319 324 328 325 326 327 326 322 315 304 295 286 273 261 254 255 257 258 260 261 260 262 261 253 247 245 247 246 244 245 246 247 247 248 249 251 254 255 255 258 265 269 269 267 263 265 266 267 267 264 260 258 256 254 249 247 244 237 233 235 235 235
5 41 58 45 187 232 255 220 282 328 326 74 72 51 23 336 359 357 353 351 340 332 318 308 293 279 293 280 297 314 310 332 326 315 317 318 324 323 321 323 324 326 322 313 300 289 283 271 259 253 256 258 260 260 261 261 262 263 259 251 249 251 250 248 248 249 250 250 251 252 254 254 254 256 259 262 261 263 265 262 261 263 264 265 264 257 252 251 251 250 247 244 237 232 235 234 234
359 31 187 246 235 225 246 238 303 326 24 50 69 58 24 2 4 353 353 348 340 328 316 324 298 263 305 302 320 313 306 334 342 331 323 318 317 319 320 321 323 324 321 312 294 283 279 271 264 261 264 265 264 262 262 262 262 263 261 257 252 252 254 251 249 251 252 252 253 253 254 254 254 257 260 262 257 257 260 260 258 258 261 262 262 255 250 248 249 249 247 246 237 231 236 236 234
12 10 209 234 253 250 269 262 306 328 40 12 30 54 24 9 2 352 345 338 355 358 347 333 321 341 301 296 304 301 328 333 337 337 321 311 314 321 324 323 323 320 318 310 290 278 274 272 270 269 272 272 269 263 261 261 262 262 261 261 256 254 256 255 251 252 254 255 258 258 258 256 255 256 260 264 259 255 256 257 254 253 256 258 258 255 254 252 252 249 246 244 234 231 237 236 234
15 338 310 239 259 289 277 246 347 63 60 349 6 45 19 13 359 344 335 344 40 43 17 347 338 322 289 284 274 280 329 328 330 330 318 316 320 328 330 330 328 322 316 307 292 279 273 274 274 273 273 271 268 264 261 260 259 260 261 262 260 257 257 258 254 253 254 256 258 260 261 259 257 257 260 264 261 256 253 252 251 253 254 256 255 251 254 255 257 252 246 241 230 230 236 236 235
358 298 276 242 248 249 265 326 30 68 74 355 16 31 16 13 353 337 335 357 65 84 59 360 345 310 281 312 292 279 320 328 330 323 321 326 330 335 334 334 330 325 318 310 300 282 276 278 278 274 271 268 265 263 261 260 259 259 260 262 262 259 257 257 256 255 255 256 255 256 259 260 260 258 256 258 259 257 254 253 252 253 253 255 255 249 249 252 257 255 248 238 227 229 234 235 234
350 299 262 256 244 213 264 19 62 49 81 52 49 35 14 3 348 335 334 345 358 6 15 15 354 308 308 334 311 306 321 329 339 333 333 331 333 334 332 333 328 325 318 311 307 291 281 280 280 276 270 266 262 261 261 261 261 260 261 261 262 261 258 257 258 257 256 256 255 255 256 258 261 258 252 252 255 256 254 254 254 255 254 254 255 251 246 247 253 255 252 238 226 228 232 234 233
327 289 269 264 266 231 253 111 92 62 92 103 125 93 6 348 339 321 325 332 338 342 353 19 348 297 325 326 315 335 340 339 348 342 339 335 331 330 329 330 326 324 316 311 310 300 288 282 280 276 271 267 263 261 260 260 261 261 262 262 262 262 261 258 257 257 257 257 255 253 254 256 258 256 252 251 252 254 254 254 254 255 254 254 254 252 248 247 249 251 253 240 227 227 230 234 233
289 256 275 291 275 253 228 95 94 89 89 92 100 61 4 345 331 311 313 318 332 333 344 353 288 283 316 315 309 348 355 348 355 346 338 333 329 328 330 330 331 329 319 311 309 304 296 288 282 277 273 269 266 263 261 260 260 261 262 263 263 263 262 258 256 257 257 257 255 253 253 255 256 256 254 252 253 254 255 255 254 254 254 255 254 251 249 248 249 249 251 241 229 227 230 234 235
280 230 256 288 263 269 18 53 72 86 83 105 108 45 359 339 317 316 322 318 332 330 351 2 326 324 316 317 331 349 343 344 351 341 331 329 327 328 331 333 337 337 328 317 312 308 301 294 288 281 275 271 269 267 264 262 260 260 260 262 263 263 262 259 257 256 255 255 256 254 254 256 256 256 254 253 254 256 257 255 252 252 253 254 253 251 249 247 249 248 248 242 230 227 231 233 234
292 274 269 278 292 347 24 25 37 77 104 115 92 37 350 330 308 328 337 331 333 341 34 23 343 330 317 337 350 352 356 346 344 336 330 332 330 332 335 336 341 345 339 329 320 314 307 301 294 288 280 274 271 269 268 265 262 261 261 263 264 263 262 260 258 257 255 253 254 255 254 255 255 254 254 255 255 256 257 255 251 250 253 254 253 252 249 247 247 247 246 243 233 226 232 234 229
303 326 303 287 328 352 359 356 20 79 132 98 53 16 334 330 331 339 335 326 335 2 29 2 333 313 335 345 336 358 5 349 346 344 341 339 338 338 339 344 350 352 350 344 336 326 315 307 301 295 289 281 275 272 270 268 265 263 263 264 263 263 263 262 260 257 255 254 253 254 254 255 253 252 255 256 257 258 258 255 252 251 252 253 254 252 249 247 247 247 243 241 235 226 230 234 228
314 329 307 292 316 317 319 347 23 352 121 97 52 4 320 316 340 335 327 330 356 21 360 348 339 304 347 351 347 359 352 344 347 351 349 347 348 345 346 351 353 351 350 349 346 341 331 319 309 301 296 290 283 277 273 271 269 268 267 266 264 262 262 263 262 258 255 255 255 255 255 254 253 252 255 256 257 259 259 257 254 252 252 253 255 253 250 248 247 248 244 241 236 228 230 235 230
319 323 290 275 276 250 340 46 17 329 70 87 102 349 318 292 330 327 336 336 342 1 343 0 10 345 356 354 349 346 339 342 347 352 355 357 358 356 357 355 354 351 348 345 342 342 341 333 321 309 302 297 292 286 280 276 273 271 271 270 267 264 262 262 263 259 254 255 257 257 256 254 253 252 254 255 257 258 258 257 255 254 253 253 255 254 252 250 247 249 248 242 237 231 231 234 232
318 308 271 259 255 205 87 49 345 271 18 64 148 306 327 307 301 313 334 327 311 338 355 18 19 9 3 357 346 336 334 347 353 358 360 3 8 7 5 1 359 354 350 348 344 340 337 336 333 321 310 303 298 293 288 284 280 276 274 272 270 267 264 262 263 261 255 253 255 258 258 256 253 252 253 254 256 257 258 256 254 254 254 255 255 255 255 253 248 248 250 243 237 232 230 235 232
306 272 253 258 236 105 66 30 358 307 337 57 142 6 339 329 350 317 316 309 295 323 29 29 25 19 3 358 350 344 347 359 7 10 9 12 16 15 13 11 8 3 359 357 351 344 336 333 334 332 323 313 305 299 293 289 285 282 279 277 274 270 266 263 262 260 255 252 253 256 258 257 252 251 254 255 256 256 257 257 256 254 255 256 255 256 257 255 251 248 250 246 237 233 230 235 228
278 252 259 282 66 70 50 39 4 318 307 338 349 5 346 331 346 341 331 301 250 323 41 31 21 10 2 357 352 359 9 13 21 23 23 24 22 21 18 15 13 10 8 6 1 354 345 335 330 329 326 321 314 305 297 291 288 285 283 280 277 274 270 265 262 259 254 252 253 254 256 257 252 250 253 256 257 257 257 258 257 256 255 257 257 256 257 255 253 250 252 249 240 236 233 234 224
280 278 278 357 63 60 48 52 4 318 309 320 328 349 340 332 339 341 344 338 356 39 34 18 4 357 355 356 359 13 20 24 32 32 31 29 26 24 20 18 15 14 13 10 8 4 360 350 336 326 321 320 317 309 301 295 290 288 287 285 281 278 274 268 263 259 255 253 253 254 255 256 254 250 251 253 255 257 258 257 256 256 255 257 257 256 255 253 251 252 254 249 241 237 235 234 222
293 298 286 73 57 71 80 53 344 312 305 311 321 325 319 340 336 334 332 323 24 49 24 6 356 352 350 354 9 25 31 34 36 34 33 31 29 26 21 19 16 15 15 12 11 10 8 3 353 341 327 320 318 311 304 298 294 292 290 289 285 281 277 273 268 262 258 254 253 253 253 255 254 249 249 250 252 255 256 255 253 254 254 256 258 258 256 252 249 249 251 246 240 237 232 226 215
336 292 333 78 38 96 106 36 319 300 298 306 314 311 320 22 321 328 334 319 53 47 17 3 353 348 350 6 28 36 36 36 34 34 34 31 29 27 23 20 16 15 13 13 12 10 11 10 4 358 347 333 324 315 307 299 293 290 287 286 285 282 278 275 271 267 262 257 253 253 253 252 251 247 246 248 251 252 252 252 251 251 253 255 257 257 253 251 250 245 240 231 224 226 225 215 207
275 259 57 77 23 60 98 3 304 297 296 298 302 312 334 332 306 345 352 358 63 26 6 4 354 351 3 33 45 41 40 37 35 34 32 31 29 26 23 19 16 14 12 12 11 9 10 10 8 5 359 349 337 324 313 304 296 289 285 282 280 279 276 274 270 267 264 261 255 251 252 250 248 246 243 245 248 248 247 249 251 249 251 253 251 252 251 248 247 241 236 223 206 203 209 209 203
273 203 90 74 29 48 71 307 278 288 291 291 307 329 319 309 327 51 27 57 50 7 4 8 0 8 32 49 49 44 44 39 37 34 31 29 26 23 21 18 14 12 11 10 9 8 9 8 7 5 2 358 350 336 321 310 301 294 287 280 277 276 275 273 269 266 263 261 257 250 248 246 246 246 241 241 244 245 244 247 250 248 248 247 241 243 245 242 243 242 234 223 206 190 190 200 199
245 290 84 77 32 38 346 285 274 281 289 297 311 310 296 304 350 75 73 69 26 1 23 22 18 44 55 55 50 48 44 39 37 32 30 27 23 21 18 16 13 10 9 8 7 6 7 8 6 2 1 360 356 349 335 319 307 298 290 283 280 277 275 272 268 266 263 259 254 246 245 245 244 244 241 240 242 244 245 244 245 245 245 242 238 237 239 241 242 236 223 213 204 191 183 186 187
206 300 33 68 307 99 214 252 275 284 298 310 308 297 294 2 336 127 84 55 11 6 43 43 49 68 61 57 53 48 42 37 34 28 27 23 19 18 14 12 10 9 8 5 4 3 4 4 4 3 359 357 355 354 347 331 316 304 296 287 283 280 278 276 268 263 260 256 252 245 244 246 244 243 241 240 241 242 242 239 239 242 241 235 234 234 234 235 225 214 210 202 194 190 184 176 174
164 310 331 304 276 133 190 209 266 286 324 322 303 299 337 105 187 134 81 34 7 17 64 68 72 74 63 61 53 46 42 36 30 26 23 20 17 16 12 9 7 5 3 1 1 1 1 360 0 2 359 355 353 352 349 340 327 312 301 292 285 281 280 281 271 262 259 254 252 249 246 247 246 244 241 240 239 239 239 237 236 239 235 228 228 228 221 214 198 183 184 185 179 178 175 168 168
333 305 299 282 249 135 157 143 133 138 25 331 304 305 329 170 203 140 73 24 10 35 81 80 79 75 66 62 53 47 42 35 30 25 22 19 17 13 9 7 4 2 359 358 357 356 357 356 355 356 357 356 353 350 346 344 337 323 310 298 288 282 280 279 273 265 263 258 253 249 245 245 246 242 239 238 236 235 236 234 233 234 230 226 229 224 207 195 187 177 173 172 165 162 162 165 170
310 308 302 272 154 135 147 138 154 157 33 331 308 303 297 197 187 100 53 17 13 54 90 82 80 73 66 60 52 46 40 35 30 26 23 19 15 11 8 5 1 359 358 356 353 352 353 353 351 350 351 351 351 349 344 341 340 333 322 307 294 286 279 275 271 266 265 263 257 250 244 242 243 240 233 232 231 231 232 229 229 229 225 222 224 225 207 191 187 186 186 180 169 167 169 169 172
289 293 303 260 133 139 151 136 165 168 7 328 310 303 255 161 134 67 27 8 15 74 91 80 78 71 63 57 49 45 38 33 30 27 22 17 12 9 6 3 1 358 357 354 351 351 350 349 348 348 347 346 346 346 342 338 336 334 331 321 306 294 283 274 270 266 265 264 260 254 247 244 243 240 231 229 229 230 233 229 225 223 221 219 219 228 213 191 187 189 189 186 180 184 181 173 174
248 217 273 250 138 152 152 121 161 164 4 329 318 319 261 125 128 99 6 1 34 88 87 79 78 71 61 53 47 42 35 30 28 23 18 13 9 6 3 2 -0 357 355 352 351 350 348 346 344 344 343 342 342 341 340 337 332 330 330 326 317 308 294 281 273 268 264 262 260 258 252 248 246 239 230 231 230 227 231 230 225 220 218 220 220 223 207 187 184 185 183 180 176 179 178 177 178
205 168 202 220 100 146 140 112 152 174 343 332 328 318 306 345 85 356 345 14 96 96 87 84 79 69 58 48 42 37 32 28 23 17 14 10 5 3 1 359 358 357 354 351 350 348 347 345 342 341 340 339 339 337 336 334 331 327 324 322 320 318 307 290 281 275 267 261 261 259 255 253 251 243 233 235 234 225 228 229 226 219 214 220 221 217 203 186 182 184 180 177 171 172 177 181 182
198 184 210 9 3 88 125 107 74 42 356 352 347 317 303 329 341 341 6 91 107 99 91 88 78 66 53 44 38 30 26 22 16 13 10 6 2 360 357 355 355 355 352 349 347 346 345 344 342 340 338 337 336 334 332 330 328 324 320 317 314 316 312 298 287 281 274 266 262 261 260 259 256 251 241 238 235 222 224 228 226 218 212 219 220 213 203 189 185 187 183 182 177 174 178 182 184
182 4 328 324 314 313 97 113 79 48 14 354 347 301 301 323 342 22 91 108 105 104 98 90 76 59 49 40 33 24 18 14 11 9 6 2 358 355 352 351 351 351 349 345 343 342 342 342 340 338 337 335 332 330 329 327 325 322 318 314 309 308 309 305 293 285 280 272 266 261 262 262 258 256 248 241 235 221 220 227 225 218 213 218 219 210 203 195 192 190 184 184 182 179 182 184 184
307 346 324 302 301 305 291 147 98 65 19 332 295 265 295 321 354 71 103 107 107 107 100 92 71 56 49 38 30 20 13 10 8 4 0 357 352 350 347 345 344 345 344 341 339 337 337 338 338 336 335 334 331 329 328 325 324 322 318 313 306 302 301 303 298 290 283 278 274 266 259 259 256 255 252 247 240 227 220 225 222 218 218 217 217 213 207 204 198 189 184 184 184 183 183 183 182
309 315 313 299 296 288 279 277 91 67 359 311 291 288 305 323 359 89 100 103 109 106 100 93 66 56 45 34 27 17 11 8 5 359 354 351 348 346 343 340 340 340 339 338 337 334 333 335 335 334 333 333 330 327 326 324 324 324 322 317 310 302 297 297 297 295 288 281 281 276 266 258 254 254 254 250 244 232 221 222 220 218 220 217 214 214 208 204 196 188 187 186 185 186 183 182 183
303 296 289 284 290 282 279 306 79 58 337 287 317 313 310 319 343 105 103 105 109 106 103 86 63 60 41 30 23 13 8 4 359 354 351 349 346 345 343 340 338 338 338 336 336 335 332 332 331 330 331 330 328 326 324 322 323 325 323 322 319 311 302 298 296 297 296 290 284 281 277 267 256 254 254 250 245 237 224 220 219 216 218 215 214 213 207 203 197 190 190 188 185 185 184 184 184
292 283 278 281 288 289 300 328 91 67 349 285 315 315 307 315 358 116 113 109 107 106 100 77 67 60 35 26 17 9 4 359 356 351 349 347 346 347 345 342 340 338 338 337 336 334 332 330 326 325 325 325 324 323 321 318 320 322 321 322 323 319 313 307 301 300 300 298 291 279 278 275 261 253 255 251 246 242 229 220 219 216 215 216 215 214 209 204 201 196 192 189 187 186 187 187 185
284 279 288 292 292 308 324 335 104 57 345 297 321 318 307 312 115 123 119 109 102 98 91 74 62 45 29 21 11 6 1 357 354 349 349 350 348 347 344 342 340 338 337 336 334 332 331 329 325 322 321 320 318 317 316 313 313 315 316 317 319 320 319 315 308 305 304 304 300 287 278 278 268 258 257 254 248 242 231 221 219 218 215 215 216 214 210 203 200 198 193 189 189 189 190 189 187
284 283 293 293 317 337 330 105 73 350 312 308 340 320 311 29 123 127 119 106 98 94 88 76 57 35 22 15 9 3 358 357 354 350 350 349 346 344 341 339 337 336 334 333 332 330 328 326 324 321 317 314 311 311 311 309 309 308 309 311 312 315 318 318 313 309 308 306 303 296 283 277 277 271 260 252 247 241 231 224 222 222 218 214 215 212 207 203 199 198 196 192 192 192 191 191 190
282 282 291 294 339 351 318 68 345 325 309 329 321 306 322 111 126 123 117 112 106 104 98 89 63 35 21 14 8 1 358 355 350 349 347 345 343 340 338 336 334 333 331 329 329 329 327 325 323 321 318 313 307 306 306 306 306 305 304 305 307 309 312 317 316 311 309 306 301 298 291 278 276 281 268 252 247 241 231 227 224 221 220 218 217 212 205 205 205 201 199 196 194 191 190 193 192
289 276 292 306 340 334 306 312 321 314 144 63 340 310 299 148 156 141 127 124 114 109 103 92 59 34 24 12 7 1 356 352 346 346 346 344 342 339 336 335 333 331 329 328 327 327 325 322 320 317 315 312 307 303 303 304 303 303 303 302 304 308 311 315 316 314 311 309 305 301 300 290 276 276 275 259 250 243 232 229 225 220 221 220 216 213 209 210 211 205 200 198 197 195 191 192 191
299 40 24 340 334 316 310 318 325 315 239 67 30 328 291 184 179 161 150 146 125 113 95 68 31 24 16 6 3 356 351 349 345 346 347 345 341 337 334 333 332 330 328 326 323 321 319 318 316 313 310 308 305 302 300 300 300 299 300 300 301 304 308 311 314 315 314 312 311 307 304 303 292 276 275 270 255 243 233 227 225 222 223 222 217 214 212 213 212 206 201 199 199 199 194 191 189
302 39 14 343 321 308 314 319 326 316 295 342 22 295 284 265 210 169 160 159 135 113 80 48 23 16 8 1 357 351 351 349 347 348 346 343 339 335 333 332 331 328 325 322 319 317 316 315 313 310 307 304 302 300 298 297 296 295 296 296 295 296 299 302 306 311 312 311 310 310 307 305 304 287 271 271 264 247 238 234 230 227 225 222 220 216 213 214 212 206 204 203 201 200 198 194 191
309 20 352 333 321 307 310 309 302 300 302 304 268 234 259 279 232 160 160 166 145 102 57 36 18 9 1 358 354 352 352 348 347 346 343 338 335 333 331 329 329 326 323 320 317 315 313 312 309 307 305 302 300 299 296 295 294 292 292 292 291 290 291 294 300 304 308 309 307 308 309 306 305 298 274 266 270 260 246 241 237 230 224 220 217 216 216 215 212 208 206 205 203 200 201 199 195
332 9 336 305 300 287 288 290 291 304 306 293 257 207 238 274 185 149 174 194 179 42 33 22 9 3 358 356 352 350 350 346 343 339 335 332 330 329 327 325 326 325 323 321 317 315 313 310 307 305 303 302 299 298 295 293 292 290 289 289 288 287 287 290 294 297 302 306 305 305 308 308 305 299 285 266 268 271 253 239 235 230 224 219 216 216 219 217 212 211 206 201 201 201 202 201 197
325 333 299 279 266 259 268 274 296 310 288 275 254 198 225 277 201 163 197 215 246 3 18 10 1 359 355 353 351 349 347 342 337 331 328 327 325 324 323 322 322 322 322 320 318 316 313 311 309 305 302 301 300 297 295 292 291 290 287 285 285 285 285 287 288 291 297 302 304 304 305 308 310 303 293 273 263 271 266 243 233 231 225 220 219 218 218 216 214 213 208 202 201 203 203 200 197
308 299 287 290 276 269 270 269 296 298 272 272 220 187 240 276 248 168 174 165 58 11 359 359 356 352 351 351 350 346 340 336 333 329 326 323 322 322 321 320 319 319 320 320 319 318 315 312 311 308 302 301 301 298 295 294 291 288 286 284 283 283 283 284 284 284 290 299 302 303 304 306 311 309 299 283 263 266 272 252 231 229 227 221 221 219 216 216 215 213 210 207 206 205 203 199 198
284 281 303 314 300 296 281 255 218 247 268 72 113 114 261 251 259 97 124 121 74 34 2 355 351 348 349 349 345 339 334 332 331 328 325 324 323 323 323 321 319 319 320 320 319 319 316 311 309 309 304 302 302 299 295 294 292 287 285 284 282 281 281 281 281 279 282 294 300 299 301 303 308 313 304 290 271 263 271 262 233 226 228 221 220 220 217 217 216 212 210 210 208 206 204 200 199
265 277 325 325 311 313 284 256 241 251 264 119 113 45 274 252 262 149 143 133 92 51 16 1 352 347 346 343 337 333 331 331 330 327 326 324 325 326 324 322 321 320 321 320 318 315 314 311 309 309 307 304 304 302 297 294 292 289 286 284 281 279 279 279 277 277 277 286 296 297 298 300 304 313 310 297 282 267 268 270 245 229 227 223 221 221 218 216 214 211 211 210 209 206 204 203 201
301 306 335 315 311 316 294 292 288 268 257 125 40 343 291 267 253 150 142 129 92 39 14 1 352 345 340 336 332 330 331 331 330 327 324 323 323 324 322 321 321 320 318 318 317 315 313 313 313 312 308 306 307 306 302 297 294 291 286 283 282 278 278 278 275 274 275 279 292 295 294 297 300 308 312 304 292 279 269 270 261 237 224 222 222 219 216 214 211 210 210 208 207 206 204 205 203
59 48 359 276 261 271 278 304 306 294 298 285 285 289 269 290 130 132 128 125 100 19 4 354 347 340 334 331 329 329 330 330 328 325 323 323 323 323 322 321 320 319 318 317 317 317 316 314 315 313 310 307 305 304 303 301 298 294 289 284 282 279 277 277 274 273 273 275 287 294 291 293 297 302 310 307 297 289 273 266 268 252 226 217 218 217 213 211 208 208 207 204 203 205 205 205 204
134 103 124 227 245 252 266 291 291 299 303 285 232 223 253 345 120 136 132 135 100 2 356 348 341 335 332 331 329 330 330 329 328 325 323 322 321 322 322 320 318 318 319 319 317 317 315 311 311 312 311 308 306 302 296 298 301 297 293 288 284 281 279 276 273 272 271 272 282 292 290 289 293 298 306 308 299 290 279 267 266 263 236 215 213 213 210 209 206 205 206 203 202 205 206 205 205
160 165 202 122 64 312 268 281 281 271 286 268 200 239 264 161 151 159 152 141 354 354 352 343 336 334 333 332 330 329 329 328 326 323 321 321 321 322 323 322 319 317 319 320 319 319 317 315 316 316 314 313 314 313 304 301 301 295 293 296 290 283 279 276 272 271 271 270 276 287 290 287 288 294 301 306 303 291 281 270 262 265 250 220 210 211 210 209 206 204 205 204 203 206 207 206 206
201 195 167 119 84 75 233 269 287 255 271 264 227 256 268 267 241 171 168 313 346 345 344 338 333 334 332 330 329 328 328 326 325 323 322 323 324 325 325 325 322 320 320 322 321 320 319 318 319 317 315 314 314 316 313 306 299 290 287 293 296 291 283 275 271 272 272 269 272 283 289 285 284 291 298 302 304 295 281 272 264 265 259 229 212 211 211 209 207 206 206 205 204 206 207 206 206
49 124 129 153 263 227 187 216 273 267 273 278 269 269 263 258 254 152 177 328 346 337 338 335 331 333 332 330 328 327 329 328 327 327 326 327 327 326 326 326 325 323 322 323 322 321 321 318 318 316 314 313 311 312 314 309 304 299 291 289 293 296 290 278 271 272 274 267 269 281 288 285 282 286 295 298 301 298 284 275 269 264 264 241 216 211 211 208 207 208 206 204 204 206 206 205 205
92 97 149 183 263 252 229 217 248 263 274 285 287 290 275 238 164 117 344 340 344 334 337 333 328 332 331 330 329 328 331 329 326 326 327 328 327 327 326 325 327 326 322 322 323 323 324 320 318 316 313 312 311 311 312 310 311 312 306 295 289 290 296 293 278 271 273 268 268 279 287 286 281 280 290 295 297 299 289 279 274 261 262 254 222 210 210 209 207 208 206 203 203 204 204 203 203
163 192 197 196 190 219 259 250 186 231 262 273 283 288 279 130 109 68 335 342 339 335 336 328 326 329 330 330 328 328 330 328 326 326 325 326 325 325 325 323 326 328 326 326 325 325 325 321 318 317 314 314 312 311 312 310 311 313 312 305 290 281 290 306 297 280 275 269 266 274 284 286 281 277 285 292 293 296 291 283 279 260 257 261 231 209 207 208 207 206 206 204 202 203 203 202 202
201 207 207 212 197 178 229 243 190 165 243 249 264 279 274 156 130 328 331 333 335 335 332 325 324 326 328 329 327 327 327 325 325 325 324 324 325 325 325 325 326 327 328 328 327 326 325 321 319 318 316 315 313 312 312 310 310 310 310 310 300 286 282 290 300 296 285 275 267 271 282 287 280 274 280 289 290 293 293 286 282 264 252 260 245 214 205 206 206 204 204 204 202 204 204 202 200